Location: �chemir�
(47.5500°N, 0.1667°W)
Time: 15:22:29
(UTC+02:00)

ISS - Visible Passes

Search period start: 31 July 2021 00:00
Search period end: 10 August 2021 00:00
Orbit: 419 x 421 km, 51.6° (Epoch: 31 July)

Date Brightness Start Highest point End Pass type
(mag) Time Alt. Az. Time Alt. Az. Time Alt. Az.
31 Jul -1.1 00:03:00 10° SW 00:03:17 10° SW 00:03:17 10° SW visible
31 Jul -1.6 23:14:10 10° W 23:16:21 16° SW 23:17:44 13° SSW visible
01 Aug -2.0 22:26:24 10° W 22:29:12 24° SW 22:31:59 10° SSE visible
03 Aug -0.8 22:30:51 10° SW 22:30:55 10° SW 22:30:58 10° SW visible
